This demonstration page uses our WeatherBlox Daily Observations layout. Learn more.

Left ArrowRight Arrow

34.02893, -84.19858

Hourly Observations for April 14, 2022

Temp ( °F °C ) Dew Point ( °F °C ) Humidity (%) Winds ( mph kmh ) Pressure ( in mb ) Visibility ( mi km ) Precip ( " mm )
12:53 am 00:53 Clear 67 19.4 58 14.4 73 73 S 7 11 29.98 1015 10 16 0.00 0.00
1:53 am 01:53 Clear 66 18.9 58 14.4 75 75 S 8 13 29.94 1014 10 16 0.00 0.00
2:53 am 02:53 Partly Cloudy 65 18.3 58 14.4 78 78 S 7 11 29.92 1013 10 16 0.00 0.00
3:38 am 03:38 Cloudy with Rain 63 17.2 60 15.6 90 90 SSE 3 6 29.92 1013 3 4 0.08 2.03
3:46 am 03:46 Cloudy with Light Rain 63 17.2 61 16.1 93 93 SSE 5 7 29.91 1013 9 14 0.08 2.03
3:53 am 03:53 Cloudy 63 17.2 61 16.1 93 93 SSE 5 7 29.89 1012 10 16 0.08 2.03
4:37 am 04:37 Mostly Cloudy 62 16.7 61 16.1 96 96 VRB 5 7 29.87 1011 9 14 0.00 0.00
4:53 am 04:53 Mostly Cloudy 63 17.2 61 16.1 93 93 Calm 29.85 1011 10 16 0.00 0.00
5:53 am 05:53 Cloudy 63 17.2 61 16.1 93 93 SW 7 11 29.88 1012 10 16 0.00 0.00
6:01 am 06:01 Cloudy 63 17.2 61 16.1 93 93 WSW 9 15 29.90 1013 10 16 0.00 0.00
6:53 am 06:53 Partly Cloudy 62 16.7 60 15.6 93 93 W 6 9 29.88 1012 10 16 0.00 0.00
7:53 am 07:53 Sunny 62 16.7 60 15.6 93 93 W 7 11 29.90 1013 10 16 0.00 0.00
8:53 am 08:53 Partly Cloudy 63 17.2 60 15.6 90 90 W 6 9 29.93 1014 10 16 0.00 0.00
9:37 am 09:37 Mostly Cloudy 64 17.8 60 15.6 87 87 W 10 17 29.95 1014 10 16 0.00 0.00
9:53 am 09:53 Cloudy 64 17.8 60 15.6 87 87 WNW 9 15 29.95 1014 10 16 0.00 0.00
10:13 am 10:13 Cloudy 64 17.8 60 15.6 87 87 WNW 7 11 29.96 1015 10 16 0.00 0.00
10:53 am 10:53 Cloudy 65 18.3 59 15 81 81 W 9 15 29.97 1015 10 16 0.00 0.00
11:53 am 11:53 Cloudy 65 18.3 59 15 81 81 NW 14 22 29.99 1016 10 16 0.00 0.00
12:00 pm 12:00 Cloudy 64 17.8 59 15 84 84 WNW 13 20 30.00 1016 10 16 0.00 0.00
12:20 pm 12:20 Cloudy 64 17.8 59 15 84 84 WNW 9 15 30.00 1016 10 16 0.00 0.00
12:53 pm 12:53 Cloudy 67 19.4 58 14.4 73 73 WNW 12 19 30.00 1016 10 16 0.00 0.00
1:08 pm 13:08 Mostly Cloudy 68 20 57 13.9 68 68 WNW 9 15 29.99 1016 10 16 0.00 0.00
1:53 pm 13:53 Mostly Sunny 70 21.1 56 13.3 61 61 NW 8 13 29.98 1015 10 16 0.00 0.00
2:53 pm 14:53 Sunny 73 22.8 52 11.1 48 48 NW 12 19 29.97 1015 10 16 0.00 0.00
3:53 pm 15:53 Sunny 72 22.2 52 11.1 50 50 NW 8 13 29.97 1015 10 16 0.00 0.00
4:53 pm 16:53 Sunny 72 22.2 45 7.2 38 38 W 14 22 29.96 1015 10 16 0.00 0.00
5:53 pm 17:53 Sunny 73 22.8 36 2.2 26 26 NW 9 15 29.97 1015 10 16 0.00 0.00
6:53 pm 18:53 Sunny 70 21.1 34 1.1 27 27 WNW 10 17 30.00 1016 10 16 0.00 0.00
7:53 pm 19:53 Sunny 66 18.9 37 2.8 34 34 undefined N/A 30.00 1016 10 16 0.00 0.00
8:53 pm 20:53 Clear 63 17.2 38 3.3 40 40 NNW 10 17 30.03 1017 10 16 0.00 0.00
9:53 pm 21:53 Clear 60 15.6 39 3.9 46 46 NNW 6 9 30.06 1018 10 16 0.00 0.00
10:53 pm 22:53 Clear 59 15 38 3.3 46 46 NNW 7 11 30.09 1019 10 16 0.00 0.00
11:53 pm 23:53 Clear 56 13.3 34 1.1 44 44 NNW 7 11 30.10 1019 10 16 0.00 0.00

Powered by AerisWeather